Theta_e
318 321 324 326 328 329 335 335 333 337 332 330 332 326 325 325 322 322 320 319 320 321 322 323 325 326 326 328 328 326 325 328 333 333 328 324 318 320 323 323 324 324 325 326 325 323 323 326 326 328 330 332 331 331 333 333 333 334 334 335 335 335 335 335 336 336 336 336 336 336 336 336 335 335 335 334 334 333 332 332 332 332 332 332 333 334 334 335 336 337 336 335 334 334 334 334 334
321 325 327 328 328 330 343 339 331 335 328 327 329 325 326 325 323 322 321 321 322 321 323 324 325 327 325 325 322 324 326 322 324 325 320 316 317 320 322 322 323 324 326 326 325 323 320 323 323 325 327 329 329 329 330 330 331 332 333 333 333 333 333 333 333 334 334 334 333 334 334 334 333 333 332 331 330 329 329 328 328 327 327 328 328 329 329 330 331 332 333 333 332 332 332 332 331
322 328 329 329 330 331 342 337 333 331 323 325 329 330 325 324 326 323 322 322 323 323 324 324 324 324 324 325 321 324 326 318 318 318 314 314 317 319 321 322 321 324 325 325 325 322 318 321 322 324 326 327 327 327 328 328 329 330 331 330 331 331 330 331 331 331 331 331 331 330 330 330 329 328 327 326 325 324 323 323 322 322 322 322 323 323 323 324 324 325 326 327 327 327 326 326 325
322 329 328 330 337 336 339 336 337 329 323 326 326 332 326 325 327 322 322 322 322 323 324 323 323 319 321 326 320 324 326 319 318 316 314 314 317 319 320 321 321 323 324 325 324 320 318 320 322 324 326 326 326 326 326 327 327 327 328 328 328 328 328 328 328 328 327 327 326 325 325 324 322 321 320 318 317 315 314 313 313 313 313 314 315 316 316 316 316 316 317 317 317 316 316 316 316
323 329 326 330 341 339 336 335 337 329 327 329 322 326 326 325 325 321 322 321 322 323 322 321 323 319 319 322 320 327 325 321 318 314 315 314 317 319 319 320 321 322 323 324 323 319 318 320 322 324 326 325 325 324 323 323 322 322 323 323 323 324 324 324 323 323 322 321 320 318 317 314 312 310 309 308 307 306 305 304 304 304 304 305 305 306 307 307 307 307 307 307 306 306 306 307 307
324 327 325 329 335 334 334 333 336 331 329 331 325 324 324 324 323 322 321 320 321 322 322 320 322 321 320 319 318 325 322 321 318 314 315 314 318 319 318 319 319 321 322 322 321 319 319 320 322 324 325 324 323 319 318 318 317 317 317 318 318 318 318 317 317 316 314 313 310 309 306 305 303 302 302 301 301 300 300 300 299 299 299 299 299 300 302 303 301 300 300 300 300 301 301 301 301
325 327 329 331 330 328 332 331 332 333 329 327 326 324 324 323 321 322 322 320 320 319 320 321 321 321 321 318 316 318 316 318 316 315 316 315 318 318 316 317 318 320 320 320 319 318 319 320 321 323 323 322 319 316 315 314 314 314 314 313 313 312 311 310 308 307 306 304 302 301 300 300 299 299 299 298 298 298 298 298 298 297 297 297 297 298 299 301 299 297 298 298 298 298 298 299 299
324 328 334 338 335 329 329 328 327 328 327 325 323 324 324 322 321 324 324 320 320 319 319 320 321 321 320 318 320 316 313 317 316 316 315 315 318 316 315 315 317 319 320 320 317 317 317 318 319 320 319 317 314 313 312 311 310 309 308 307 306 305 304 303 302 301 300 300 299 299 299 298 298 298 298 297 297 297 297 297 297 297 297 297 297 297 297 298 298 297 297 297 297 297 297 297 297
323 327 332 336 334 328 328 329 326 325 324 323 321 323 324 321 322 326 324 320 320 320 320 321 320 320 319 318 321 315 313 316 315 315 313 315 317 313 313 314 315 317 318 319 316 314 314 316 316 316 314 311 309 308 308 306 306 304 303 302 301 301 300 300 299 299 298 298 298 298 297 297 297 297 297 297 297 297 297 297 297 297 297 296 296 296 296 296 297 296 297 296 297 297 297 297 297
325 327 330 332 329 326 327 326 327 330 325 322 322 322 324 321 322 325 324 321 321 321 320 320 318 318 318 320 323 315 313 314 313 313 312 315 314 310 312 313 314 314 315 316 315 312 311 314 314 312 309 306 306 305 304 302 302 301 301 300 300 299 298 298 298 297 297 297 297 297 297 297 297 297 297 297 297 297 297 297 297 296 296 296 296 296 296 296 296 296 296 296 296 296 296 296 296
329 327 329 329 326 326 327 326 326 332 325 321 322 320 323 323 322 322 322 321 321 321 319 319 319 320 317 319 323 315 312 313 313 312 311 313 311 308 310 311 313 313 313 312 312 310 311 312 311 308 305 304 304 303 302 301 301 300 299 298 298 298 297 297 297 297 297 297 297 297 297 297 297 297 297 297 297 296 296 296 296 296 296 296 296 296 296 295 296 295 295 295 296 296 296 296 296
333 330 329 327 328 328 327 327 325 330 329 323 320 319 321 322 321 321 321 320 320 321 320 318 320 320 318 320 319 312 310 311 312 312 311 311 308 307 308 309 310 311 310 310 309 309 310 310 307 305 304 304 304 302 302 300 300 298 298 297 297 297 297 297 297 297 297 297 297 297 297 297 297 297 297 296 296 296 296 296 296 297 296 296 296 296 296 296 296 295 295 295 295 295 295 295 295
331 332 327 328 334 330 325 326 328 331 331 325 320 319 320 321 322 322 322 321 320 321 320 319 319 318 319 320 314 309 309 310 311 311 310 308 305 305 307 308 308 309 308 308 307 307 309 307 304 304 304 303 302 301 300 299 298 297 297 297 297 297 297 297 297 297 297 297 297 297 297 297 297 297 297 296 296 296 296 296 296 296 296 296 296 295 295 295 295 295 295 295 295 295 295 295 295
328 331 325 329 335 329 325 327 328 328 329 325 318 319 320 320 322 322 322 321 320 321 319 318 318 317 318 318 316 311 309 309 310 309 307 305 304 304 305 306 306 307 306 307 305 305 308 306 304 304 302 301 300 300 299 298 297 297 297 297 297 297 297 297 297 297 297 297 297 296 296 297 296 296 296 296 296 296 295 295 295 295 295 294 294 294 294 294 294 294 294 294 295 295 295 295 295
325 332 325 327 331 327 327 327 325 323 328 328 319 320 320 318 320 321 320 320 319 318 316 316 316 318 318 318 322 316 309 308 309 308 306 304 304 304 304 305 305 305 305 304 303 303 305 304 303 302 300 299 299 298 298 297 297 297 297 297 297 297 297 297 297 297 296 296 296 296 296 296 296 296 296 295 295 295 295 294 294 294 294 293 293 293 293 293 294 294 295 296 295 293 294 294 294
326 333 326 324 328 325 327 329 326 323 327 326 318 319 319 318 319 319 317 317 319 317 317 317 315 316 318 317 320 315 309 309 308 306 305 303 303 303 303 303 303 304 303 302 302 301 302 302 301 300 299 298 298 297 297 297 297 296 296 297 297 297 297 297 296 296 296 296 296 296 296 295 295 295 295 295 294 294 294 294 293 293 293 293 293 293 293 293 295 294 294 295 293 293 293 293 294
329 333 326 325 328 325 329 329 323 324 326 322 317 318 319 319 318 316 314 315 319 318 318 318 316 315 316 316 314 311 309 308 307 305 303 302 302 302 303 303 302 302 301 301 301 300 300 299 299 298 298 298 298 297 297 296 296 296 296 296 296 296 296 296 296 296 296 295 295 295 295 295 294 294 294 294 294 294 293 293 293 293 293 293 293 293 293 293 293 293 292 292 292 292 293 293 293
330 331 325 324 328 327 331 327 319 322 323 319 318 319 318 319 319 316 314 316 317 317 317 317 316 313 311 312 311 309 308 307 306 304 302 302 301 302 302 302 302 301 300 301 300 299 299 299 298 297 298 298 297 297 297 296 296 296 296 296 296 296 296 296 296 295 295 295 295 295 295 294 293 294 294 294 294 294 294 294 293 293 293 294 293 293 293 293 292 292 292 292 292 292 292 293 293
329 331 325 328 334 331 327 321 319 320 318 320 320 320 318 318 320 316 315 319 317 316 317 317 317 314 309 308 308 307 307 306 305 303 302 302 301 301 301 301 301 300 300 301 300 299 299 299 299 297 298 298 297 297 296 296 296 296 296 296 295 296 295 295 295 295 295 295 295 295 295 293 293 294 294 294 294 293 294 294 294 294 294 294 294 293 293 293 292 292 292 292 292 292 292 292 292
328 329 328 335 335 326 322 319 320 319 318 320 319 318 317 317 318 315 316 319 318 318 317 316 318 316 311 307 305 305 305 304 304 303 302 302 301 301 302 301 301 300 299 300 300 300 299 299 299 298 298 298 298 297 296 296 296 296 296 295 295 295 295 295 295 295 295 295 294 295 295 294 293 294 294 294 293 293 293 294 294 294 294 294 294 294 294 294 293 293 292 292 292 292 292 292 292
325 325 327 334 327 320 322 320 319 320 318 319 319 318 317 317 316 316 317 317 317 317 315 316 318 316 312 307 305 304 304 303 303 303 302 302 302 302 302 302 302 301 300 299 300 300 299 299 298 298 297 298 298 297 296 296 296 296 295 295 295 295 295 295 294 294 295 294 294 294 295 294 294 294 294 294 294 294 294 294 294 294 294 294 294 294 294 294 294 293 293 293 292 292 292 292 292
322 322 323 326 322 320 321 320 321 320 318 317 318 317 317 317 316 316 317 316 317 317 316 315 316 316 313 308 305 304 304 303 302 302 302 302 302 302 302 302 302 301 300 300 299 299 299 299 299 298 298 298 298 297 297 296 296 296 295 295 294 294 294 294 294 294 294 294 294 294 295 295 295 295 295 294 294 294 294 295 294 295 295 295 295 294 294 293 293 293 292 292 292 291 291 291 291
321 322 320 321 320 319 318 319 321 319 316 318 318 316 316 316 317 317 317 315 315 317 319 317 315 314 311 308 305 305 305 304 303 302 303 303 303 303 303 303 302 301 301 300 299 299 299 299 299 298 298 298 297 296 296 296 296 296 295 295 295 294 294 294 294 294 294 294 294 295 296 296 296 295 295 295 295 294 295 295 295 296 296 295 295 294 293 293 292 292 292 292 292 291 291 291 291
321 322 320 319 319 318 317 319 321 319 317 318 317 315 315 316 317 317 316 315 314 315 318 317 314 311 309 309 307 306 306 305 303 303 304 304 304 304 304 304 303 302 301 301 300 299 299 299 299 298 298 298 297 296 295 296 296 296 295 295 295 295 294 294 295 294 294 294 295 295 296 297 296 296 295 295 295 295 295 295 295 296 295 295 294 293 293 292 292 292 292 292 292 291 291 291 291
320 320 319 317 318 319 318 318 320 320 317 318 316 315 316 316 315 315 315 315 314 314 315 315 314 313 314 311 308 307 306 305 304 304 304 304 304 305 304 304 303 302 302 302 301 300 300 299 299 298 298 298 297 296 295 296 296 296 296 295 296 295 294 295 295 294 294 294 295 295 296 296 296 296 296 296 296 295 295 295 295 295 295 294 293 293 292 292 292 292 292 292 291 291 290 290 290
320 318 318 317 318 318 317 317 318 319 318 316 315 316 315 314 314 314 314 314 314 314 314 315 314 315 317 314 309 308 307 306 304 304 304 304 305 304 304 304 303 303 303 302 302 301 301 300 299 299 298 298 297 296 296 296 296 296 296 295 295 295 294 295 295 294 294 294 294 295 296 296 296 296 296 296 296 295 295 295 294 294 294 293 293 292 292 292 292 292 292 292 291 291 290 290 290
318 317 317 317 317 317 316 316 317 317 317 316 316 316 315 314 314 315 315 315 315 315 314 314 314 314 315 315 311 308 308 306 305 305 304 304 304 304 304 304 303 303 303 302 302 302 301 300 300 299 299 298 297 296 296 296 296 296 296 295 295 295 295 295 295 294 294 294 294 295 296 296 296 296 296 296 296 296 295 295 294 294 293 293 292 292 292 292 292 292 291 291 291 290 290 289 289
316 316 317 317 316 316 316 316 315 315 316 317 315 315 315 314 314 314 315 316 316 316 316 314 314 314 314 314 312 309 308 306 305 305 304 304 304 304 304 304 304 303 303 303 303 302 301 301 300 300 299 299 298 297 296 296 296 296 296 296 295 295 295 295 294 294 294 294 294 295 295 296 296 295 295 296 296 296 295 294 294 293 293 292 292 292 292 292 292 291 291 291 290 289 289 289 289
316 316 316 317 316 316 316 316 316 315 316 317 314 315 316 315 315 315 314 314 315 316 317 316 314 314 314 313 312 311 309 307 306 305 305 306 305 305 305 305 305 303 303 303 303 302 302 301 300 300 299 299 298 297 297 296 296 296 296 296 295 295 295 295 294 295 295 294 294 295 295 295 295 295 295 295 295 295 295 294 294 293 293 292 292 292 292 292 291 291 291 290 290 289 289 289 288
316 316 316 317 317 318 317 315 317 315 315 317 314 316 318 317 315 314 314 313 314 314 316 316 315 314 313 313 312 311 310 308 307 306 306 307 306 306 306 305 305 304 303 302 302 302 302 301 301 300 300 299 298 297 297 297 297 296 296 296 295 294 295 294 294 295 295 295 294 294 295 295 295 294 294 295 295 295 295 294 293 293 292 292 292 292 291 291 291 291 291 290 289 289 288 288 288
316 316 317 318 317 321 318 316 318 316 315 315 315 316 317 317 315 315 316 314 313 314 314 314 315 314 313 314 312 312 311 308 307 307 308 307 307 307 306 306 306 305 303 302 302 302 301 301 300 300 300 299 299 297 297 297 297 296 296 296 295 294 294 294 294 295 295 295 294 294 294 295 294 294 294 294 295 294 294 294 293 293 292 292 291 291 291 291 291 291 290 290 289 288 288 287 287
317 317 320 322 319 319 318 317 318 316 315 313 315 317 315 315 315 315 316 315 313 314 315 314 314 313 313 314 312 312 311 308 307 307 308 308 308 307 307 306 306 305 304 302 302 301 301 301 300 300 299 299 299 298 297 297 297 296 296 296 295 295 294 294 294 295 295 294 294 294 294 294 294 294 294 294 294 294 294 293 293 292 292 291 291 291 290 290 290 290 290 289 289 288 287 287 287
321 317 319 322 320 317 318 320 319 316 316 313 314 318 317 317 317 316 316 316 315 314 315 315 313 312 312 313 312 312 312 310 308 307 307 308 308 308 308 307 306 306 304 303 302 301 301 300 300 300 299 299 299 298 297 296 297 297 296 296 295 295 294 294 294 294 294 294 294 294 294 294 294 293 293 293 293 293 293 293 292 292 291 291 290 290 290 290 290 289 289 289 288 287 287 287 287
322 320 318 319 320 317 318 322 319 316 316 314 314 315 316 317 318 317 316 316 316 315 315 316 314 312 312 312 312 312 311 311 311 308 307 308 309 308 308 307 307 306 305 303 302 301 301 300 300 299 299 299 298 298 297 296 297 297 296 296 295 294 294 294 294 294 294 294 294 293 294 294 293 293 293 293 293 293 292 292 292 291 291 290 290 290 290 290 289 289 289 288 288 287 287 287 286
320 322 321 320 319 317 317 319 318 315 315 316 314 314 314 314 314 314 314 315 315 316 316 315 315 313 312 312 312 312 311 311 311 309 307 308 308 309 308 308 307 306 305 303 302 302 301 300 299 299 299 298 298 297 297 297 297 296 296 296 295 295 294 293 293 293 294 294 293 293 293 293 293 292 292 292 292 292 292 292 291 291 290 290 289 289 289 289 289 289 288 288 287 287 287 286 286
318 319 319 319 318 316 315 316 318 317 316 316 316 314 314 314 313 313 313 313 313 314 314 314 313 313 313 312 312 312 312 312 310 308 308 308 308 308 308 308 307 306 305 303 302 301 300 299 299 298 298 298 297 297 297 297 296 296 296 295 295 294 294 293 293 293 293 293 293 293 292 292 292 292 292 291 291 291 291 291 291 290 290 289 289 289 289 289 289 289 288 288 288 287 287 286 285
316 316 316 317 316 315 315 317 318 317 316 317 317 315 314 314 314 313 313 313 313 313 313 313 313 313 313 313 313 312 313 312 311 309 308 308 308 308 308 307 306 305 304 303 301 301 300 299 299 298 298 298 297 297 297 296 296 296 295 295 295 294 294 293 293 293 293 293 292 292 292 292 292 291 291 291 291 291 291 291 290 290 289 289 288 288 288 289 288 288 288 288 288 287 286 286 285
315 316 316 316 317 317 316 317 319 317 316 316 317 316 315 314 313 313 313 313 313 314 313 313 313 313 313 313 313 313 313 313 314 313 308 306 307 307 307 306 305 304 303 302 301 300 300 299 299 298 297 297 297 297 297 296 296 296 295 295 295 294 293 293 293 293 293 292 292 292 292 292 291 291 291 290 290 291 291 291 290 289 289 288 288 288 288 288 288 288 287 287 287 287 286 285 285
316 316 317 318 318 317 316 317 319 315 315 320 320 316 314 314 314 313 313 313 313 314 314 315 314 314 314 313 314 313 314 314 316 318 310 305 306 306 306 305 305 304 303 302 301 300 300 299 299 298 297 297 297 297 297 296 296 296 295 295 294 294 293 293 293 293 292 292 292 291 291 291 291 291 290 290 290 290 290 290 290 289 289 288 288 288 288 288 287 287 287 286 286 286 286 285 285
316 317 317 318 317 317 315 317 320 316 316 322 321 317 314 314 314 313 314 313 314 314 315 315 315 315 315 315 315 314 314 315 317 319 313 306 304 304 304 304 303 304 302 301 301 300 299 299 299 298 297 297 297 296 296 296 296 295 295 294 294 294 293 293 292 292 292 292 291 291 291 291 291 290 290 290 290 290 290 289 289 289 289 288 288 288 287 287 287 287 286 286 286 285 285 285 285
317 318 318 317 317 318 316 316 320 319 319 320 317 316 316 316 316 315 315 315 314 315 314 315 315 315 316 315 316 315 315 315 316 318 314 309 305 303 303 303 303 302 301 301 300 300 300 299 299 298 297 297 297 296 296 296 295 295 294 294 293 293 292 292 292 292 291 291 291 291 290 290 290 290 290 289 290 290 289 289 289 289 288 288 288 288 287 287 287 287 286 286 285 285 284 284 284
316 320 320 318 318 318 318 318 317 320 324 320 317 320 320 320 320 317 316 317 315 315 314 315 315 314 315 314 314 315 315 316 317 317 314 309 306 303 301 302 302 301 301 301 301 301 300 299 299 298 297 297 297 296 296 296 295 295 294 293 292 292 291 291 292 291 291 291 291 291 290 290 290 290 289 289 289 289 289 289 289 288 288 288 287 287 287 287 287 286 286 285 284 284 284 284 284
316 323 325 321 320 320 320 320 319 324 329 322 318 323 322 321 321 319 318 319 318 317 316 316 314 314 315 314 314 314 315 318 319 316 312 309 306 303 302 301 301 301 301 301 301 300 300 299 298 298 297 297 297 296 296 295 295 295 294 294 293 292 292 292 292 291 291 291 291 290 290 290 290 289 289 289 289 289 289 288 288 288 288 287 287 287 287 287 287 286 286 285 284 284 284 284 284
318 326 330 325 323 323 323 324 325 327 327 321 319 322 322 321 320 319 319 319 319 318 317 317 315 315 316 315 315 315 317 320 321 316 311 308 307 304 302 301 301 301 301 301 300 300 300 299 298 298 298 297 297 296 296 295 295 294 294 293 293 293 292 292 292 291 291 291 290 290 290 290 290 289 289 289 289 288 288 288 288 287 287 287 287 287 287 286 287 286 286 285 284 283 283 283 283
320 324 328 326 324 325 325 324 326 327 323 321 322 320 321 320 317 317 317 316 317 316 316 316 315 317 317 316 315 315 318 322 320 316 312 308 306 303 301 301 301 301 301 300 300 300 299 299 298 298 297 297 297 296 296 296 295 295 294 293 293 293 293 292 292 291 291 291 290 290 290 290 289 289 288 288 288 288 288 288 288 287 287 287 287 287 286 286 286 286 285 285 284 283 283 282 282
321 321 324 328 328 325 322 320 322 325 322 321 323 320 320 319 315 316 317 315 317 315 315 315 314 317 317 316 315 315 319 322 318 314 312 309 305 302 302 301 301 300 301 300 300 299 299 299 298 298 297 297 297 296 296 295 295 294 294 293 293 293 292 292 292 291 291 291 290 290 290 289 289 289 288 288 288 288 287 287 287 287 287 287 287 286 286 286 286 286 285 284 283 282 282 282 282
318 319 322 328 332 328 326 326 324 322 320 320 324 321 318 319 317 317 318 317 318 316 315 316 314 315 316 315 315 314 317 322 318 314 312 308 303 302 302 301 300 300 300 300 299 299 298 298 298 298 297 297 297 296 296 296 295 294 294 294 293 293 292 292 291 291 291 290 290 290 290 289 289 289 288 288 287 287 287 287 287 287 287 286 286 286 286 286 285 285 285 284 283 282 282 282 282
317 322 324 326 332 330 327 325 322 320 320 320 323 322 318 318 318 317 316 316 317 315 316 317 316 315 314 314 315 313 315 320 319 315 313 310 306 303 301 300 300 299 299 299 299 298 298 298 297 297 297 297 297 296 296 295 295 294 294 294 293 293 292 292 291 291 291 290 290 290 289 289 289 288 288 287 287 287 287 287 287 286 286 286 286 286 285 285 285 284 284 283 283 282 282 282 281
317 323 324 322 325 325 322 323 323 322 322 320 320 320 318 317 316 316 316 317 317 316 316 316 317 317 314 314 315 313 317 322 320 316 314 312 309 306 303 300 299 299 299 299 298 298 298 297 297 297 297 297 296 296 296 295 295 294 294 294 293 293 292 292 292 291 291 291 290 289 289 289 288 288 288 288 287 287 287 287 287 287 286 286 286 285 285 284 284 284 284 283 282 282 281 281 281
317 320 321 321 322 321 322 327 326 320 322 323 318 317 320 318 320 320 316 316 318 317 316 316 317 318 315 315 315 315 319 322 319 316 315 312 309 307 303 300 299 299 299 298 298 298 297 297 297 297 297 297 296 296 295 295 295 295 294 294 293 293 292 292 292 291 291 291 290 290 289 289 288 288 288 288 288 287 287 287 287 287 286 286 285 285 284 284 284 284 283 283 282 281 281 281 280
315 318 321 320 324 326 324 326 323 318 326 328 317 319 325 320 321 324 319 315 316 315 316 316 315 316 315 314 317 320 322 321 317 315 314 312 309 306 302 300 299 299 299 298 298 298 297 297 297 297 296 296 296 296 295 295 295 295 294 294 293 293 292 292 291 291 291 291 290 290 289 289 289 289 289 289 288 288 287 287 287 287 286 285 285 284 284 284 283 283 283 282 281 281 280 280 280
317 320 320 317 322 324 319 321 321 317 323 324 317 322 327 319 317 320 318 316 316 314 315 315 314 314 314 313 318 324 324 320 316 315 314 312 309 305 301 300 300 299 299 298 298 298 297 297 297 296 296 296 296 296 295 295 295 294 294 293 293 293 292 292 291 291 291 291 290 290 290 289 289 289 289 289 288 287 287 287 286 286 285 285 285 284 284 283 283 282 282 281 281 280 280 280 280
318 319 319 317 320 321 318 323 324 317 318 319 318 321 322 317 316 316 315 316 316 314 314 313 313 314 315 313 318 327 325 319 316 315 313 312 310 306 301 300 300 299 299 299 298 298 298 297 297 296 296 296 296 295 295 295 295 294 294 293 293 292 292 292 291 291 291 290 290 290 290 289 289 289 289 289 288 287 287 286 286 285 285 285 284 284 283 282 282 282 281 281 280 280 280 280 280
319 321 320 317 319 321 321 324 325 321 319 320 318 317 316 315 317 317 317 316 315 315 314 313 313 314 314 313 320 329 325 318 315 314 313 312 311 307 302 300 301 300 299 299 299 299 298 297 297 296 296 296 296 296 295 295 294 294 294 293 293 292 292 292 291 291 291 290 290 289 289 289 289 289 289 288 287 287 286 286 285 285 285 284 284 283 282 282 282 282 281 281 280 279 279 279 279
318 320 319 318 322 324 323 322 322 321 319 318 316 315 313 313 314 314 314 316 317 316 314 313 312 312 313 313 318 324 320 317 316 315 314 313 312 308 303 301 301 301 300 300 299 298 298 297 297 297 296 296 296 295 295 295 294 294 294 293 293 292 292 291 291 291 290 290 290 289 289 289 289 289 288 287 287 286 286 285 285 285 285 284 283 283 282 282 281 281 280 280 279 279 279 279 279
315 316 317 317 319 323 324 321 320 320 318 318 317 316 314 315 316 314 313 316 317 315 314 313 313 312 312 312 316 320 320 319 318 316 314 313 312 308 303 302 302 301 300 300 299 299 298 298 297 297 296 296 295 295 295 295 294 294 294 293 293 292 292 291 291 291 290 290 290 289 289 289 289 288 288 287 287 286 286 285 285 285 284 284 283 282 282 281 281 280 280 279 279 279 278 278 278
317 317 319 316 315 319 321 317 318 318 317 317 317 316 315 318 319 316 316 319 316 315 315 314 314 313 312 313 315 319 320 320 318 315 315 314 312 308 303 303 303 301 301 300 299 299 298 298 297 297 297 296 295 295 295 295 294 294 293 293 293 292 291 291 291 290 290 290 289 289 289 289 288 288 287 287 286 286 286 286 285 285 284 284 283 282 282 281 280 280 279 279 279 278 278 278 278
319 317 318 318 316 317 318 316 318 318 316 316 317 317 315 316 320 320 321 323 320 318 316 313 314 314 313 313 315 316 319 321 320 317 315 314 314 310 305 303 303 302 301 301 300 299 298 298 298 297 297 296 296 296 295 295 294 293 293 293 292 292 291 291 290 290 290 289 289 289 288 288 288 287 287 286 286 286 285 285 285 285 284 283 283 282 281 281 280 279 279 278 278 278 278 278 278
Wind_Speed
4 4 4 4 6 7 6 2 2 3 2 2 5 1 5 4 1 2 2 1 2 1 1 3 3 3 4 4 7 7 2 2 3 4 2 5 14 17 17 19 16 12 10 9 8 9 11 11 11 11 10 9 8 7 7 7 8 8 8 9 9 9 9 9 9 9 10 9 9 9 8 8 8 7 6 5 4 3 3 3 2 2 2 2 2 3 3 4 4 5 4 5 6 7 7 7 6
3 3 4 3 4 4 2 2 2 3 3 3 5 3 5 2 3 1 3 2 2 3 2 4 5 6 6 7 8 3 2 2 1 3 2 12 17 16 20 19 17 13 13 11 9 10 11 12 11 12 12 11 10 9 8 8 9 8 8 8 8 8 8 8 8 8 9 9 9 8 6 5 5 4 3 3 2 2 2 2 2 2 2 2 2 3 4 3 3 3 4 6 7 8 8 8 8
1 2 4 3 2 1 1 3 2 0 2 3 5 4 2 3 1 1 2 3 4 4 3 4 4 3 4 6 4 1 1 1 3 4 4 16 16 17 23 20 18 15 15 13 10 10 11 13 12 12 12 11 11 10 9 9 9 9 9 9 9 9 8 8 8 9 9 9 8 5 4 4 3 2 2 2 2 2 3 3 3 2 3 3 3 3 4 4 4 4 5 7 7 8 8 9 9
2 2 5 3 2 2 3 2 2 3 2 4 3 6 1 5 5 3 3 4 3 2 3 3 3 0 2 4 3 3 3 2 5 6 6 17 18 22 25 21 20 14 15 13 12 12 12 13 12 12 12 11 11 10 10 9 9 9 9 9 9 9 9 9 9 8 8 7 5 3 3 2 2 2 2 2 2 2 3 3 3 3 3 3 3 3 4 4 4 5 5 6 7 8 8 9 9
3 2 1 2 3 1 2 1 1 2 4 4 2 5 3 6 7 5 4 2 0 2 3 4 2 2 2 2 2 3 4 2 6 8 11 18 20 26 24 23 20 14 14 12 12 12 12 13 12 12 12 11 10 9 9 8 8 8 8 7 7 7 7 7 6 5 5 4 3 3 3 3 3 3 3 3 3 3 4 4 4 4 4 4 4 4 4 4 4 5 6 6 7 8 8 8 9
2 3 1 1 1 1 2 1 2 3 6 4 3 4 5 7 7 7 3 2 2 2 2 4 3 2 1 1 1 3 4 5 8 11 18 21 22 26 24 22 20 16 16 13 13 13 13 13 13 13 12 11 10 9 9 8 8 7 8 7 7 6 5 5 4 4 4 4 3 4 4 4 4 4 4 4 4 4 4 5 5 5 5 5 5 5 5 5 5 6 6 7 7 8 8 8 9
4 4 1 2 1 1 3 3 4 5 6 5 5 4 7 7 7 8 5 2 2 2 2 2 5 5 1 1 2 0 2 7 9 14 22 24 25 27 23 23 20 18 17 14 14 14 15 13 13 13 12 11 10 9 8 8 8 8 8 7 7 6 5 5 4 4 4 4 4 4 4 4 4 4 4 4 4 5 5 6 6 6 7 7 7 7 7 7 7 7 8 8 8 8 8 9 9
2 1 1 4 2 2 2 4 5 4 5 4 4 6 8 9 8 7 6 3 1 2 0 1 5 4 2 2 2 2 2 6 8 17 24 26 29 27 23 24 22 19 17 16 15 15 16 13 13 12 12 11 10 9 8 8 8 8 8 7 7 6 6 6 5 5 4 4 4 4 4 4 5 5 5 6 6 6 7 7 8 8 8 8 9 9 9 9 9 9 10 10 10 10 10 10 10
1 1 2 3 1 1 1 4 4 4 6 6 3 5 7 9 8 7 6 2 2 4 3 4 5 3 3 2 1 2 2 7 12 19 24 28 30 27 25 25 24 22 19 17 16 15 15 15 14 13 13 12 11 11 10 10 9 9 8 8 7 7 7 6 6 5 5 5 5 6 6 6 7 7 7 7 7 7 8 8 9 9 9 10 10 10 10 10 11 11 11 11 11 11 11 11 11
0 1 2 2 2 1 4 3 4 4 6 6 5 6 7 8 6 6 6 4 4 4 4 5 4 2 3 3 2 2 5 14 19 22 24 28 29 26 25 25 24 24 22 20 17 15 16 16 16 15 14 13 13 13 12 12 10 9 8 8 7 7 7 6 6 6 6 7 7 7 7 8 8 8 8 8 8 8 8 8 9 9 9 10 10 10 10 11 11 11 11 11 11 11 11 12 11
2 2 2 2 1 2 4 4 4 5 6 3 3 5 7 7 6 5 6 4 4 5 4 3 2 3 2 2 2 1 13 20 22 25 26 28 28 25 24 24 23 22 22 21 18 17 17 18 18 17 16 16 15 13 12 11 10 9 8 8 7 7 7 7 8 7 8 8 7 7 7 8 8 8 8 7 8 7 7 8 8 8 8 9 9 9 10 10 10 10 10 10 10 10 10 11 11
2 2 3 3 2 4 4 4 6 6 6 2 2 5 4 6 5 5 6 5 5 6 6 5 4 4 3 3 2 4 18 23 22 26 28 29 27 24 24 24 23 22 21 20 19 19 19 19 19 19 18 16 15 13 11 10 9 9 8 8 8 8 8 8 9 8 8 8 7 7 7 7 7 7 7 7 7 7 7 7 7 7 7 8 8 8 9 9 9 9 10 10 10 10 10 10 10
1 1 4 1 4 3 3 3 6 5 5 3 3 4 1 4 4 6 7 6 7 6 6 8 5 5 4 2 1 3 14 21 22 25 29 29 26 24 25 24 23 22 20 20 20 20 21 20 20 19 18 15 13 12 11 10 10 9 9 9 9 9 9 9 9 9 8 8 7 7 7 7 7 7 7 7 7 7 8 7 7 8 8 8 9 9 9 10 10 10 10 10 10 10 10 9 10
1 2 4 2 2 1 3 3 5 4 4 4 2 2 1 1 4 6 6 5 8 6 5 9 7 5 3 1 1 3 11 21 24 26 28 27 24 24 24 24 23 22 21 20 20 21 23 22 21 19 17 15 13 12 11 11 11 11 11 11 11 11 10 10 10 9 9 8 8 8 8 8 8 8 8 8 8 9 9 8 9 10 10 10 10 11 11 12 12 13 13 13 12 12 11 11 11
2 0 3 0 3 2 3 3 5 5 4 5 3 2 1 1 2 3 5 5 6 4 1 5 6 3 4 6 5 6 16 25 26 26 27 24 23 23 23 23 22 22 21 20 20 21 23 23 22 19 17 16 14 14 13 12 12 12 13 13 13 12 12 12 11 11 10 10 10 9 9 9 10 10 10 10 9 10 10 10 11 11 11 11 12 13 13 13 14 15 14 14 14 14 13 13 13
2 2 3 1 3 2 3 3 3 4 5 5 3 2 1 4 2 1 2 3 2 3 1 4 5 3 5 7 5 9 24 30 28 28 27 23 22 21 21 22 21 21 21 21 20 21 23 23 22 21 19 17 16 15 14 14 14 14 14 14 14 14 14 14 13 13 13 12 12 11 11 11 11 11 10 10 10 11 11 11 12 12 12 12 12 13 13 13 14 14 14 14 14 14 14 14 14
3 4 2 2 3 2 4 3 1 3 5 4 3 1 3 5 3 1 1 3 2 2 2 4 4 2 3 5 6 17 30 32 31 29 27 24 23 22 22 22 22 22 23 23 22 22 22 23 23 22 21 20 18 17 16 16 16 16 15 15 15 15 15 15 15 15 14 14 14 14 13 12 12 11 11 11 11 11 11 11 12 12 12 12 13 13 13 13 13 13 14 14 14 14 15 14 14
4 3 2 3 3 4 5 4 3 2 2 4 4 4 6 3 3 0 1 0 1 2 3 4 3 3 3 8 16 26 33 33 33 31 28 25 23 23 23 25 26 26 26 25 24 25 25 24 24 24 23 22 20 19 19 18 18 17 17 16 16 15 15 15 15 16 16 16 15 14 13 12 11 11 11 11 11 11 11 11 11 11 11 12 12 13 13 13 13 13 14 14 15 15 15 15 15
3 3 2 4 5 5 4 4 4 2 3 4 4 5 6 5 4 2 2 5 2 4 5 3 4 2 5 11 21 29 33 33 33 31 28 27 26 25 24 26 27 29 30 30 29 29 28 27 26 26 25 23 22 21 20 19 19 19 18 17 17 16 16 16 16 16 16 15 14 13 12 12 10 10 10 10 10 10 10 10 10 10 11 11 12 12 13 13 13 14 14 15 15 15 16 16 16
2 3 2 6 7 5 6 4 3 3 3 2 2 2 4 5 4 3 3 5 4 8 7 5 8 8 6 9 17 25 28 29 30 29 28 28 29 28 27 28 30 33 36 35 33 31 30 29 28 27 26 25 23 22 22 21 21 20 20 19 18 17 16 16 16 16 15 14 14 13 12 12 10 9 9 9 9 9 8 8 9 10 10 11 12 12 12 13 13 14 14 15 15 16 16 16 16
2 4 5 7 4 4 8 6 2 2 1 2 2 2 3 4 4 4 4 3 6 9 9 10 12 12 11 9 13 21 22 23 25 26 26 26 27 28 29 32 34 35 36 34 34 34 32 31 30 29 28 26 25 24 24 23 22 22 21 20 19 18 18 17 17 16 15 15 15 14 12 12 10 9 8 8 7 7 6 7 8 9 10 11 12 13 13 13 13 13 14 14 15 16 16 17 17
2 5 8 8 4 5 7 5 2 2 3 1 2 3 5 3 3 5 7 7 9 7 8 12 13 11 13 14 15 17 17 18 21 23 24 25 27 28 29 30 30 28 31 34 36 36 35 33 32 31 30 28 26 26 25 24 24 23 23 21 20 19 18 18 18 17 16 15 15 14 12 11 10 9 7 6 6 5 5 6 7 8 9 11 12 13 13 13 13 13 13 14 15 16 16 17 17
4 6 6 8 7 6 6 4 3 3 2 2 3 3 3 2 4 5 9 14 12 6 7 10 11 11 16 18 15 15 15 16 19 24 27 28 29 31 31 31 31 30 32 37 38 37 37 35 34 33 32 30 28 27 26 26 25 24 23 23 22 21 20 19 18 17 16 16 15 13 11 10 9 8 7 6 5 4 3 5 6 7 8 10 11 12 12 12 13 13 13 13 14 15 16 16 17
7 7 5 7 7 7 8 5 5 5 5 6 2 1 3 5 6 3 9 17 14 8 6 7 7 7 14 15 14 16 17 18 23 30 34 34 36 37 36 34 33 33 33 35 37 38 38 37 36 35 34 32 30 29 28 28 27 26 25 24 23 22 21 21 19 18 17 16 15 13 11 10 9 8 6 5 4 3 2 3 5 6 7 8 9 10 11 11 12 12 12 13 14 15 16 17 17
8 7 5 5 6 7 8 5 5 6 6 5 1 5 8 9 4 5 15 18 10 9 9 8 8 5 11 14 16 16 16 18 23 28 31 33 34 33 32 31 30 31 34 36 37 38 39 39 38 37 36 34 32 31 31 30 28 27 26 25 23 22 22 21 20 19 17 16 15 14 12 10 9 8 7 5 3 2 1 2 3 5 6 7 8 9 10 10 11 11 12 13 14 15 17 17 18
7 6 5 4 6 7 7 7 7 6 5 3 3 10 10 6 3 8 21 19 10 9 8 10 10 7 9 12 15 15 15 17 19 24 28 30 28 27 30 31 31 34 37 37 37 39 39 39 39 39 38 35 34 33 33 31 30 29 27 26 25 24 23 21 20 19 18 17 16 14 13 11 10 9 7 6 5 3 1 1 2 3 5 6 7 8 9 10 10 11 12 13 14 15 16 17 18
3 3 5 6 7 7 6 9 9 6 5 5 8 12 9 3 2 9 18 11 7 9 10 10 9 11 11 10 12 14 15 18 23 24 23 22 24 28 31 32 34 36 36 37 39 40 39 40 40 40 38 36 35 35 34 33 31 30 29 27 26 25 24 22 21 20 20 18 17 15 14 12 11 10 9 7 6 4 2 1 1 2 4 5 6 7 8 9 10 11 12 13 14 15 16 17 18
2 3 7 10 7 8 9 11 10 4 5 8 9 8 8 1 4 15 18 5 4 8 10 10 9 11 11 10 11 10 12 20 25 22 18 21 28 31 33 35 38 36 37 40 40 39 39 41 41 40 39 37 37 36 35 34 33 32 30 28 27 26 25 23 22 21 21 19 18 16 15 14 12 11 10 9 7 6 4 2 2 2 2 3 5 6 7 8 9 10 11 12 13 14 15 16 17
3 2 6 12 7 9 15 13 9 6 5 7 7 5 9 6 12 21 20 8 3 6 8 10 10 11 10 10 9 9 12 17 19 20 24 30 33 35 36 39 40 38 39 41 39 40 41 41 41 40 39 38 38 38 36 36 34 33 31 30 28 27 25 24 23 23 21 20 19 17 16 15 14 13 12 10 8 7 5 4 3 2 2 3 4 6 7 8 8 9 10 11 12 13 15 16 17
3 0 2 9 7 8 14 8 7 7 5 8 8 3 9 11 17 19 16 11 8 8 10 10 9 9 10 9 9 10 11 12 16 23 32 34 34 36 37 38 40 40 38 37 39 41 41 41 41 40 40 40 39 38 37 36 35 34 32 30 30 29 27 25 25 24 22 21 20 19 18 17 15 14 13 11 10 8 7 5 5 3 2 2 3 5 6 7 8 9 10 11 12 13 15 16 17
3 2 1 4 3 8 10 3 4 4 4 9 9 4 10 14 16 12 12 11 8 10 12 11 9 9 9 9 9 11 11 13 20 29 33 34 34 35 36 36 38 39 37 38 41 42 41 41 41 41 41 40 39 39 38 37 36 35 33 32 31 30 29 27 27 26 24 23 22 21 20 18 17 16 14 13 11 10 8 7 6 5 3 2 3 4 5 7 8 9 11 11 12 13 15 16 17
1 1 4 3 4 8 11 5 6 7 4 6 9 4 10 15 17 11 9 9 8 10 12 11 11 11 10 9 9 11 11 13 20 27 30 32 33 33 35 36 37 40 39 40 41 40 41 41 41 41 41 40 40 39 39 37 36 35 34 33 32 31 30 29 29 28 26 25 24 23 21 20 18 17 16 14 13 12 10 9 7 6 4 3 3 3 4 6 7 8 9 11 13 14 15 16 16
1 3 6 6 5 6 8 7 6 8 5 4 9 6 7 10 12 10 7 7 9 10 11 12 12 12 11 10 9 10 11 11 14 21 27 30 32 35 36 37 38 41 41 41 41 41 41 41 42 41 41 41 40 39 39 38 36 35 34 33 32 32 31 31 30 29 28 27 26 25 23 22 20 19 17 15 14 13 11 10 8 6 5 4 3 3 3 4 6 7 8 10 12 13 15 16 17
3 3 5 6 7 5 5 7 4 6 8 7 11 9 11 11 9 9 7 5 7 9 11 12 12 11 10 10 10 11 11 11 13 18 25 30 33 36 37 37 39 41 41 41 41 42 42 42 42 41 41 40 40 39 39 38 36 34 33 33 32 32 32 31 31 30 29 28 28 27 25 23 22 20 18 17 16 14 12 10 9 7 6 5 4 3 2 3 5 6 8 9 10 11 13 15 18
5 5 4 5 7 6 9 8 2 6 7 7 8 9 15 18 13 13 13 6 6 9 10 11 12 11 10 10 11 12 12 13 16 18 24 30 33 35 36 37 37 39 40 40 40 41 41 41 41 40 40 40 40 39 38 37 35 34 33 32 31 31 31 31 31 31 31 30 29 28 26 25 23 21 20 19 17 15 13 11 10 8 7 6 4 3 2 3 4 5 7 8 9 10 11 13 16
8 8 6 6 7 7 11 10 6 8 5 6 10 12 16 18 17 16 17 11 8 9 9 10 11 11 11 10 11 13 13 16 17 17 22 29 33 35 36 36 37 39 40 39 39 40 40 40 40 40 40 40 40 39 38 37 35 34 33 32 32 32 32 32 32 32 32 31 30 29 28 26 25 23 21 20 18 16 14 12 11 9 8 7 5 4 3 3 3 5 7 8 10 10 11 12 14
9 9 8 9 8 10 12 11 7 8 6 7 13 15 16 17 18 17 15 11 10 11 11 12 12 12 12 13 14 15 15 16 14 13 22 29 32 34 34 34 35 35 36 38 39 40 41 41 41 41 41 41 42 41 41 40 39 37 35 36 36 35 35 34 34 33 33 32 31 30 29 27 26 24 22 21 19 17 15 14 12 11 10 8 6 5 4 3 3 5 6 8 10 12 13 12 14
11 10 9 9 8 12 13 10 7 6 5 8 11 14 16 16 17 16 12 9 12 15 13 14 15 14 13 14 17 17 15 13 9 9 16 23 28 31 32 33 35 35 36 38 40 41 41 42 43 43 42 43 44 44 44 43 43 42 40 40 39 38 38 38 37 36 35 33 32 31 29 28 27 25 24 22 20 19 17 15 14 12 10 9 8 6 5 4 3 5 6 7 8 10 13 12 13
10 8 8 8 6 10 11 8 6 3 5 7 9 11 13 14 16 15 12 10 13 16 14 15 16 14 13 15 17 18 15 12 9 8 10 17 24 28 30 32 35 37 38 39 41 41 41 42 44 43 43 44 44 45 45 44 43 41 39 39 39 37 37 38 37 36 35 33 33 31 30 29 28 27 25 23 22 20 18 16 14 13 12 11 9 8 6 5 4 4 5 6 7 9 11 10 10
8 8 7 8 7 7 9 6 3 3 4 5 6 9 9 9 12 13 14 14 14 15 15 15 15 14 16 18 17 17 16 13 10 9 8 12 17 23 27 30 33 35 36 37 39 41 43 44 45 44 44 45 45 45 45 43 40 38 36 34 35 34 33 34 33 32 34 33 32 32 31 31 29 28 26 24 23 21 18 17 15 14 13 12 10 9 8 6 5 5 5 5 6 7 8 7 8
11 10 8 10 10 11 12 8 4 3 4 4 5 9 8 8 13 15 13 12 13 14 16 16 16 16 16 17 18 19 17 12 10 10 9 9 13 19 26 29 31 33 34 38 41 43 44 44 44 44 43 44 45 45 44 41 38 36 32 27 28 29 27 29 31 31 33 34 34 35 34 33 31 29 27 25 23 21 19 17 16 15 14 13 12 10 9 7 6 5 5 5 5 6 7 7 9
11 8 11 14 14 13 13 9 6 5 6 4 2 7 9 8 13 16 9 8 10 10 13 16 16 16 15 15 17 18 15 10 10 10 11 11 12 16 22 26 29 32 35 39 42 43 43 42 43 42 43 43 44 44 43 42 40 38 35 31 31 30 27 31 37 38 38 39 39 38 36 34 32 31 29 26 24 22 20 18 17 17 15 14 13 11 10 8 7 6 6 6 5 5 6 8 11
10 6 11 14 12 11 11 7 4 3 6 3 3 2 8 5 7 10 7 7 10 9 11 14 13 13 13 13 14 14 10 7 8 9 10 12 12 13 17 25 30 33 35 38 40 41 40 40 42 43 43 43 43 43 44 43 41 41 41 39 38 36 34 36 40 40 41 41 39 38 37 35 34 32 30 28 26 23 21 20 19 18 16 15 14 12 11 9 8 7 7 7 6 5 6 9 12
8 4 8 10 9 9 8 6 5 4 4 3 2 3 7 11 6 9 11 11 12 12 11 12 11 12 15 15 13 12 9 8 9 9 10 12 12 14 18 26 32 34 35 36 37 39 39 39 42 43 43 43 43 43 45 45 44 43 43 41 39 40 39 37 36 37 38 39 38 38 37 36 34 33 31 29 27 25 23 22 20 19 18 16 15 13 12 11 10 8 8 7 6 7 7 9 11
6 2 5 5 5 5 3 3 5 2 3 4 4 5 4 14 8 8 11 11 11 13 14 14 13 14 16 15 14 12 9 9 10 11 12 12 13 18 23 27 31 32 33 36 37 39 39 39 40 42 42 42 43 43 45 46 46 44 43 41 39 39 37 34 34 35 36 37 37 37 37 36 35 33 31 30 28 26 24 23 22 20 19 17 16 14 13 12 11 10 9 8 7 8 8 10 12
3 4 3 4 3 2 4 1 1 2 4 6 7 7 3 14 11 5 5 7 10 11 12 14 13 14 16 14 12 12 8 7 9 10 12 13 15 20 23 25 28 30 32 35 37 37 38 38 39 41 42 42 43 44 45 46 45 44 43 43 41 39 35 33 32 33 35 36 36 37 37 37 36 34 33 31 29 27 26 24 22 21 19 18 16 15 14 13 12 10 9 8 8 9 10 11 12
1 5 5 6 5 5 4 1 4 2 8 6 10 12 9 10 10 4 5 6 11 10 8 10 10 12 15 13 11 12 9 7 8 8 9 9 12 16 20 22 26 28 30 32 34 35 37 38 39 41 42 42 42 44 45 46 46 45 45 45 43 40 37 35 34 34 35 36 36 37 37 37 37 35 34 32 30 29 27 25 23 21 20 18 18 17 15 14 12 11 10 9 9 10 10 11 12
3 4 4 4 4 4 5 4 4 2 9 6 13 14 12 10 6 3 2 3 9 10 9 10 11 13 14 12 12 12 10 7 6 7 7 7 8 12 16 19 23 26 28 31 33 35 36 37 39 39 40 42 43 44 46 46 46 47 46 45 44 42 39 39 38 38 38 38 38 37 36 36 36 35 34 33 32 30 29 27 25 23 21 21 19 17 16 14 12 12 11 10 10 10 11 11 13
4 4 4 1 4 3 3 3 0 5 8 6 10 10 9 12 7 3 7 5 6 9 9 11 13 13 13 12 13 12 7 7 7 8 8 8 9 10 12 16 21 25 29 32 33 34 35 37 38 39 41 43 43 44 46 47 47 48 48 46 45 43 41 41 41 39 40 40 39 38 38 38 37 37 37 36 35 33 31 29 27 25 24 22 20 18 17 15 13 12 11 11 11 11 12 13 15
6 5 6 5 3 1 3 4 3 5 7 7 6 6 5 8 4 8 13 13 12 11 11 13 13 13 14 12 13 10 6 7 7 8 9 9 10 10 11 16 21 25 29 31 32 35 35 36 38 40 42 42 43 44 45 46 48 49 48 46 44 43 42 42 41 40 40 40 40 41 41 42 41 42 41 40 38 35 33 30 28 26 24 21 19 18 17 15 14 13 12 12 12 13 13 14 15
6 6 5 4 4 4 4 5 6 6 7 6 3 5 4 3 3 9 12 13 12 10 11 12 12 13 11 10 11 7 5 7 7 8 9 10 11 11 11 16 21 24 27 30 32 34 35 36 39 42 42 42 44 45 45 47 50 48 46 45 43 43 43 42 41 40 41 41 41 42 42 43 43 43 42 40 38 35 33 30 27 25 23 21 20 19 17 16 14 13 12 13 14 15 15 15 15
3 5 5 3 4 6 5 5 5 2 4 6 3 4 5 4 6 7 7 8 7 8 11 10 11 12 9 9 11 6 6 7 7 8 9 10 10 9 11 16 20 23 25 29 32 34 37 39 41 43 43 43 44 45 46 48 48 45 45 45 43 42 41 40 40 40 41 42 42 42 42 42 42 42 40 39 37 35 32 30 28 26 24 22 21 19 17 16 15 14 14 15 16 15 15 15 15
2 4 4 5 4 6 4 6 3 1 5 8 3 5 6 5 7 8 7 10 8 8 10 10 12 13 10 11 10 7 7 8 8 9 10 10 9 9 12 17 20 23 27 31 35 39 42 43 42 43 42 40 41 45 47 47 45 44 45 45 43 42 42 42 42 41 41 41 41 42 42 41 41 40 39 39 37 34 32 30 28 26 24 22 21 19 17 16 16 16 16 16 16 15 15 15 15
5 3 6 3 3 2 3 1 3 2 6 7 5 8 8 6 8 4 1 5 8 9 10 11 14 14 12 12 10 8 8 8 8 8 8 8 8 8 12 18 23 27 31 34 38 40 41 40 39 40 40 41 44 46 46 44 43 44 44 45 44 44 43 43 41 40 40 40 40 41 41 41 41 40 39 38 36 34 32 30 28 26 24 22 21 20 19 18 18 17 17 16 15 14 15 16 16
6 3 2 3 1 2 2 3 3 5 8 8 11 14 10 7 8 6 4 7 10 11 12 13 14 13 12 12 10 7 7 6 6 8 7 7 9 9 12 18 24 27 29 32 34 34 34 36 37 38 39 42 43 42 42 42 43 44 44 44 44 43 42 41 40 39 39 40 41 41 41 41 41 39 38 37 36 35 33 30 28 26 25 23 22 21 20 19 18 17 17 16 15 15 16 17 16
2 2 3 1 3 4 3 3 3 4 8 9 12 14 11 7 6 6 9 11 11 12 12 12 12 12 12 11 9 6 7 7 8 8 8 9 10 11 15 21 24 28 30 31 31 32 35 37 36 36 37 38 38 38 40 41 43 43 42 41 42 43 42 41 40 40 40 41 41 41 41 41 40 39 39 38 37 36 34 32 30 28 26 24 24 23 21 20 19 17 17 16 15 15 17 18 17
1 1 3 3 2 1 2 2 2 4 8 8 8 11 11 7 3 5 9 8 9 11 10 10 11 11 12 11 10 9 9 9 9 8 9 10 10 11 16 22 24 25 26 26 28 32 35 35 35 37 38 37 38 40 41 42 43 42 41 41 42 42 41 40 40 40 41 41 41 41 42 41 40 40 39 39 38 37 35 33 31 29 27 26 25 24 22 20 18 17 17 16 16 17 18 18 17
7 6 6 6 5 3 5 6 5 4 5 7 8 9 11 8 1 3 7 6 7 9 9 10 10 10 12 13 13 12 10 9 10 10 9 10 10 10 13 18 20 20 23 26 29 31 31 33 37 39 38 38 40 41 42 43 42 40 41 41 39 38 38 38 39 39 40 41 41 42 42 41 40 40 40 40 39 38 36 34 31 29 27 26 25 24 22 20 19 18 18 18 18 18 18 18 17
Wind_Direction
117 106 81 57 6 354 335 54 65 314 85 281 272 232 265 248 194 77 80 125 79 6 35 76 63 73 100 122 141 136 104 159 172 142 203 170 147 155 152 144 146 162 170 163 166 164 162 155 146 140 130 120 122 117 107 114 116 122 118 106 110 109 105 103 103 102 102 104 102 113 117 107 104 105 103 97 93 82 79 80 68 62 43 17 7 5 21 43 52 52 26 354 4 18 16 18 18
126 111 76 46 348 358 297 87 86 316 44 301 280 208 244 332 35 61 167 158 135 187 132 100 84 83 99 117 133 113 40 10 131 131 142 145 149 159 152 145 146 161 169 165 168 162 160 152 145 143 136 126 124 121 112 111 112 116 115 108 107 104 104 103 103 102 101 102 99 116 138 129 117 115 109 73 43 24 26 32 34 34 30 22 3 347 342 345 348 355 341 333 344 350 349 354 356
139 93 41 9 316 27 3 46 102 232 42 265 277 258 239 61 96 135 130 145 165 169 108 84 72 80 62 78 112 52 203 228 131 112 126 155 161 163 156 150 148 158 167 168 174 166 155 143 136 138 134 128 124 122 118 117 117 118 116 110 108 106 108 104 100 101 99 101 102 121 147 141 134 120 98 57 30 20 19 22 32 32 32 34 22 7 354 346 338 336 333 329 331 336 337 340 342
107 78 24 27 43 30 56 53 164 153 233 235 267 283 206 133 167 142 127 160 180 140 89 67 52 23 57 95 131 90 157 210 160 141 154 174 172 161 157 154 153 160 168 173 177 165 151 142 136 133 127 126 125 124 124 122 122 118 116 114 111 107 106 103 100 102 103 108 115 129 129 113 109 92 79 67 52 40 39 37 43 47 48 50 40 25 7 354 347 342 339 335 333 336 337 337 338
106 90 350 46 81 44 85 128 163 148 228 207 244 284 203 158 161 159 151 149 107 88 121 115 88 290 74 132 157 135 165 128 159 158 155 174 171 159 157 156 156 162 171 177 175 163 151 145 137 133 128 128 130 136 141 139 142 140 138 139 135 128 124 124 121 123 126 127 126 117 105 99 94 91 88 81 74 63 57 54 52 53 54 56 54 46 28 8 358 352 346 343 344 344 343 342 342
53 38 274 48 106 147 96 269 280 258 240 195 241 265 185 172 161 155 133 75 38 37 83 114 149 160 72 2 46 146 173 129 154 169 158 165 167 161 156 154 159 167 172 174 174 166 153 146 137 134 132 133 140 152 158 156 157 158 158 159 160 157 154 153 147 143 136 127 118 110 102 99 94 89 88 82 75 63 55 52 48 46 44 45 47 46 40 26 12 5 356 351 349 344 343 342 341
17 14 16 47 3 74 103 225 240 253 250 196 205 216 181 182 162 140 136 117 25 359 32 135 150 120 131 201 95 82 161 145 156 173 164 159 162 161 155 154 163 169 170 173 171 165 157 148 140 137 137 143 154 159 158 158 157 157 157 156 154 151 149 146 142 137 129 123 113 110 107 101 96 92 89 82 78 69 61 57 56 51 46 44 46 45 43 35 25 19 13 8 4 359 355 351 347
3 350 84 86 29 17 120 233 239 221 253 239 186 190 186 178 161 140 163 180 147 200 124 182 133 104 241 154 137 276 147 164 171 172 164 156 160 160 156 161 169 169 171 176 168 164 163 157 152 151 152 158 164 164 164 164 160 157 155 152 148 146 146 145 146 144 140 138 130 127 121 112 106 100 96 89 81 73 67 63 60 55 52 48 46 44 42 38 31 28 25 21 18 15 12 9 6
242 184 53 86 94 325 256 257 259 232 254 266 216 189 184 174 159 140 160 175 151 168 190 179 131 129 220 142 169 288 135 159 159 163 163 159 161 159 160 170 176 173 176 180 173 170 169 167 169 169 167 170 170 169 172 168 164 162 157 154 153 153 153 152 152 150 147 141 133 128 118 112 104 98 92 85 78 72 67 62 59 53 50 46 42 40 38 35 29 27 25 23 21 19 17 16 15
307 128 86 87 111 283 288 265 253 263 255 235 210 190 177 175 158 144 148 169 169 150 201 176 118 163 176 159 196 280 173 159 153 159 165 163 161 161 164 176 182 178 179 183 182 180 178 174 174 176 175 175 174 173 173 169 168 165 161 159 158 156 153 151 148 142 137 129 123 118 110 105 98 93 87 81 77 70 66 60 57 51 47 44 41 38 35 34 30 26 23 22 20 18 16 15 16
27 329 97 87 86 233 260 257 256 271 274 251 225 215 182 167 144 151 144 157 173 138 177 154 128 202 145 187 244 201 167 163 162 163 166 165 163 165 169 178 186 185 183 182 184 185 183 179 176 179 179 178 176 174 172 170 169 165 164 161 157 154 148 145 140 134 130 123 119 113 106 103 96 94 88 84 80 72 69 62 58 53 49 44 41 39 36 37 34 32 30 29 27 24 22 21 21
65 315 76 106 188 205 222 249 270 272 289 310 254 258 193 147 131 173 165 159 165 141 173 175 170 168 148 254 281 145 160 168 174 167 166 166 165 169 173 179 186 191 189 184 183 184 185 183 180 180 179 178 175 174 175 172 171 168 166 161 156 152 146 143 138 133 130 124 121 116 111 106 101 98 93 90 86 83 78 71 71 66 63 58 53 50 45 43 40 38 36 35 35 33 33 34 33
123 203 87 151 203 195 242 260 275 285 302 277 222 259 164 128 175 195 169 161 163 155 197 193 156 135 169 254 296 157 170 178 176 168 166 165 168 171 175 180 186 191 193 189 185 185 186 185 184 181 179 179 178 180 182 179 177 173 168 163 158 153 148 146 141 138 135 130 127 123 119 114 110 107 104 102 100 99 93 91 90 84 80 72 67 62 56 52 48 46 44 43 41 39 40 42 42
182 190 119 232 262 213 252 262 280 287 285 257 224 248 132 127 224 186 144 163 185 181 214 195 145 124 190 208 233 216 192 184 174 169 167 167 172 172 175 180 185 190 194 194 189 188 186 187 186 184 183 184 187 188 188 185 181 177 172 167 162 159 155 152 149 147 143 140 137 133 130 125 121 118 115 113 111 108 102 100 94 87 81 73 69 65 59 54 50 48 46 44 41 40 40 40 40
183 227 107 214 313 311 244 228 258 255 255 246 216 194 159 267 244 157 150 181 215 226 209 180 151 137 191 182 223 219 187 181 171 170 167 169 175 175 179 180 185 189 193 196 192 191 189 190 189 187 191 192 195 195 193 189 183 179 173 170 167 164 162 159 157 154 151 149 145 142 139 132 127 122 119 114 111 105 98 93 88 83 78 74 68 62 58 54 49 44 42 40 36 36 36 35 36
133 94 69 344 275 286 248 229 252 245 250 238 217 129 130 287 301 113 223 169 203 271 138 184 189 166 173 184 221 185 173 172 168 169 167 167 173 176 182 182 186 188 191 196 194 193 191 193 193 191 196 198 199 196 194 191 185 180 175 174 171 168 167 164 161 158 156 152 150 148 143 135 127 119 115 109 103 98 92 88 83 81 77 74 66 59 57 53 49 43 41 38 33 33 33 32 33
65 80 75 285 248 230 234 239 258 224 246 255 270 147 158 280 308 87 276 120 131 247 228 228 222 136 160 181 166 155 160 164 164 165 165 166 168 171 178 183 186 187 190 196 197 197 194 194 195 194 197 200 200 196 193 190 185 181 178 177 174 172 169 166 164 160 156 155 156 153 140 127 120 116 112 105 99 96 92 86 80 77 72 68 62 57 53 50 49 45 41 37 34 32 30 30 31
61 92 161 243 229 213 210 220 233 197 224 242 252 212 178 238 264 157 2 244 179 228 253 254 270 14 80 138 141 148 155 160 163 164 166 168 169 171 177 183 186 188 189 193 197 198 197 196 196 196 198 200 198 195 193 189 186 183 182 181 178 176 172 168 165 160 160 159 157 149 132 119 117 116 110 102 96 91 85 78 72 69 63 59 56 52 49 47 45 43 41 36 34 32 30 30 29
119 146 188 233 215 225 228 227 242 227 209 212 245 218 191 209 201 144 231 258 241 222 256 238 235 322 78 129 140 148 155 161 166 168 171 175 178 180 182 185 189 191 190 192 195 197 200 199 198 199 199 200 196 193 192 189 187 185 184 183 180 178 174 170 165 164 164 157 148 142 135 126 121 114 104 96 87 80 75 69 63 59 54 51 49 47 45 41 38 38 36 32 31 30 29 29 28
183 155 209 245 223 248 275 264 232 213 206 192 292 238 204 223 172 139 216 250 239 218 232 203 219 224 168 151 147 153 159 166 173 175 178 184 187 188 187 188 192 196 195 195 193 195 200 201 200 201 201 201 196 192 191 190 189 187 186 185 182 179 176 172 166 167 165 153 145 148 144 130 122 113 102 94 84 77 71 63 54 49 46 43 41 38 34 31 29 28 28 27 26 26 26 25 25
192 160 205 240 222 274 277 272 227 173 127 144 283 329 278 247 161 166 178 235 260 231 222 202 216 214 177 172 165 164 167 172 180 183 186 191 194 196 196 196 198 201 198 195 194 195 199 202 202 201 203 204 198 194 192 191 189 188 187 185 184 181 177 173 168 168 165 154 149 153 148 133 127 119 110 102 91 80 68 57 48 41 37 32 27 24 21 20 19 21 23 23 24 24 24 22 21
209 213 219 237 244 280 267 252 218 148 86 102 290 295 266 240 166 193 175 215 246 221 215 209 218 211 174 176 177 172 175 179 186 191 195 197 199 201 203 204 202 202 199 198 198 198 200 202 203 202 202 204 201 197 195 193 191 191 189 186 184 182 179 175 170 170 164 158 156 158 153 142 137 131 124 116 103 89 67 53 42 30 25 19 15 15 14 13 14 17 18 20 25 25 23 22 22
225 252 234 240 241 255 262 246 221 178 145 224 231 238 259 290 265 227 195 226 235 199 190 201 221 216 181 175 173 176 184 187 192 196 199 200 203 204 204 205 203 202 201 202 202 201 202 202 205 205 203 204 201 197 197 195 194 194 192 189 188 184 183 180 175 171 167 165 163 163 161 154 148 145 138 128 115 97 67 44 31 16 14 12 10 10 10 10 11 13 15 18 22 23 22 21 20
213 257 263 258 249 247 264 261 216 183 199 225 215 310 278 244 258 260 225 237 235 225 217 199 219 198 171 172 176 187 191 192 199 202 202 204 206 207 206 205 205 203 202 204 203 202 203 203 205 206 206 205 201 196 197 197 196 196 193 193 193 188 188 186 180 174 171 171 170 169 170 166 161 159 152 144 134 107 66 34 23 7 10 12 7 6 7 8 8 9 10 13 17 19 19 17 16
217 245 268 277 272 266 282 283 230 210 223 228 272 287 248 229 261 300 256 250 236 231 241 235 235 177 158 179 189 193 197 200 205 206 208 211 211 211 209 207 204 203 203 204 203 204 206 205 205 206 207 206 201 197 197 198 198 197 196 196 195 193 193 190 183 179 176 175 175 177 178 175 172 170 167 166 163 141 84 34 19 5 10 13 7 5 3 5 5 4 4 8 14 15 14 12 11
227 232 268 292 288 287 301 295 257 235 238 191 225 262 252 244 295 282 259 253 243 228 233 237 234 218 188 188 194 196 201 206 208 209 212 215 213 212 212 208 204 205 207 205 204 205 206 205 205 207 207 205 201 198 198 199 198 198 198 198 197 195 196 194 187 183 181 181 181 182 183 182 181 182 181 182 183 177 158 41 9 5 11 12 6 3 1 360 359 359 0 5 9 12 11 9 5
236 253 287 281 282 292 287 282 269 244 248 191 206 255 267 255 211 264 260 245 224 222 234 234 219 226 214 196 199 198 202 208 208 208 210 212 210 212 212 207 206 208 207 205 206 206 204 204 206 207 207 205 202 200 200 200 200 201 200 199 198 197 197 196 192 188 185 185 186 186 189 187 188 192 190 191 192 189 193 222 337 348 6 8 357 357 358 354 355 357 358 3 7 8 7 6 2
302 348 316 287 298 308 275 273 271 247 254 205 191 259 284 259 190 246 254 233 168 206 233 237 218 229 223 208 207 199 208 212 208 204 203 206 208 211 210 208 207 207 206 206 207 204 203 204 205 206 206 205 203 202 202 201 201 202 201 199 198 198 199 196 195 195 190 188 190 190 193 193 194 197 196 199 197 196 204 211 260 309 352 352 343 350 351 349 354 356 356 1 3 2 3 4 359
298 32 318 288 324 309 273 272 258 218 226 182 147 295 283 234 221 241 252 253 244 228 238 240 226 231 229 219 214 207 216 211 203 204 209 211 211 210 210 211 207 205 207 207 205 203 204 204 203 204 206 206 205 204 203 203 203 203 202 200 198 199 200 198 199 201 195 191 193 194 196 198 197 198 200 201 199 201 204 209 240 265 314 327 333 343 343 344 350 351 352 357 359 359 1 0 355
275 31 259 282 336 297 268 266 240 217 200 152 128 285 269 248 239 240 252 254 244 243 245 240 232 233 231 226 221 222 220 206 202 211 215 214 214 213 213 213 209 207 207 203 203 204 203 203 202 202 204 206 206 205 204 203 204 203 203 202 200 201 202 201 202 205 202 196 196 197 200 201 198 200 203 202 202 203 203 209 229 244 271 306 328 335 337 340 343 347 349 351 355 357 358 355 351
264 306 245 264 304 276 271 248 185 200 197 152 136 237 257 265 261 241 246 248 221 231 244 238 236 235 234 230 225 231 225 211 214 217 217 216 215 215 215 213 209 208 205 202 203 204 202 201 201 201 203 206 206 204 204 204 204 203 203 202 201 203 203 203 205 207 205 201 201 200 202 204 201 201 203 204 205 204 205 210 221 236 254 282 313 326 333 337 341 348 348 346 350 353 352 350 348
218 248 280 266 206 259 282 266 194 197 224 156 146 224 257 264 270 254 242 241 206 221 242 239 238 236 235 236 228 235 235 224 225 225 221 217 216 215 215 214 209 207 206 204 203 201 199 200 201 201 201 203 205 204 204 204 205 204 204 204 203 204 203 204 207 208 207 204 204 203 204 205 204 204 203 205 206 206 207 210 218 230 241 261 287 310 325 333 341 346 346 343 345 347 346 346 347
283 199 246 259 225 259 291 286 232 184 169 186 190 223 258 260 273 275 260 240 210 216 240 241 239 237 233 238 235 236 242 236 234 233 225 217 216 216 216 214 209 207 207 204 201 198 197 198 200 200 201 202 203 203 202 203 204 204 205 205 204 204 204 206 207 208 208 206 205 206 206 206 206 205 204 206 206 207 209 210 218 225 235 250 260 287 314 330 339 342 344 343 341 342 341 342 346
284 225 232 253 242 250 271 289 298 150 152 205 219 231 251 255 271 288 290 252 212 214 233 240 241 241 234 236 240 239 241 238 238 233 221 216 215 216 215 214 210 207 206 204 201 199 197 197 198 199 200 201 201 201 200 202 203 204 206 205 205 205 205 207 208 209 210 209 207 207 207 207 207 205 205 207 206 208 208 209 217 222 231 240 245 270 301 322 334 339 338 339 338 336 339 344 345
229 225 225 252 248 246 253 265 249 159 175 207 219 237 251 258 265 272 274 257 223 224 229 238 241 241 238 235 238 240 242 240 241 234 219 214 214 213 213 212 209 205 204 203 201 199 197 196 196 198 199 198 199 199 198 199 200 201 202 202 203 204 204 206 208 210 211 211 210 208 208 207 208 206 206 208 207 208 207 209 216 220 229 234 241 253 273 306 323 331 328 331 331 332 340 348 347
223 235 233 242 249 253 254 260 221 178 192 210 216 233 242 252 256 256 262 257 243 241 238 244 246 246 245 241 241 241 242 244 246 235 218 213 212 210 209 207 205 202 201 200 197 196 195 193 193 195 197 196 195 194 194 194 194 196 197 197 200 202 204 205 208 211 212 213 212 210 208 207 208 207 206 207 207 208 207 210 214 219 226 229 235 240 253 285 305 318 320 323 325 332 343 351 353
244 253 255 251 253 263 258 264 247 183 192 219 217 235 240 246 253 249 254 262 257 249 242 245 246 247 249 247 250 248 244 250 253 232 215 212 210 206 204 202 199 197 196 196 194 194 194 192 192 194 195 195 193 192 192 192 192 192 194 196 198 200 202 203 206 209 211 213 213 212 210 208 208 207 206 207 207 208 208 210 213 217 222 225 231 234 248 270 293 308 313 321 323 331 338 348 354
249 250 258 261 251 263 260 257 257 188 197 241 229 243 248 247 254 253 249 250 254 250 241 244 244 244 249 251 253 253 249 254 258 229 210 206 204 201 197 195 192 191 191 193 193 192 193 193 194 196 194 194 194 193 193 194 196 196 196 198 200 200 201 203 206 208 210 212 213 213 213 211 209 208 208 208 209 210 209 211 213 216 219 222 228 232 242 256 275 293 305 319 323 328 331 338 352
243 247 256 262 252 271 267 246 256 197 192 248 243 246 254 251 255 258 250 237 243 249 242 244 247 245 250 251 253 254 254 255 248 230 209 200 197 193 191 191 191 191 191 191 192 191 192 194 196 196 195 194 195 196 196 197 199 200 201 201 201 201 202 205 207 208 209 210 211 213 214 213 212 211 210 209 209 210 210 211 212 215 220 222 226 231 235 242 258 278 297 313 319 323 326 331 347
239 242 249 258 253 268 268 246 253 223 210 250 258 259 257 258 267 261 249 241 241 249 249 249 251 249 249 251 255 258 254 251 240 227 210 197 192 187 188 189 190 190 189 189 190 190 192 195 197 196 196 196 196 198 199 199 199 200 202 205 204 203 204 205 207 208 208 208 210 212 214 215 215 214 212 211 211 211 210 211 213 216 220 222 224 228 233 236 246 265 283 297 308 316 322 323 326
243 231 229 249 249 245 254 267 298 290 279 280 282 288 270 231 250 256 249 246 245 248 252 254 255 252 252 254 258 259 254 242 229 219 203 192 188 189 190 189 187 187 188 190 190 192 194 197 197 196 196 197 198 199 199 199 198 197 198 200 201 202 204 202 203 205 205 206 210 212 214 214 214 215 214 213 213 212 211 211 214 218 219 222 224 227 232 235 240 256 270 279 289 299 307 304 305
258 224 212 235 245 245 253 278 317 316 296 276 208 283 277 203 220 247 252 250 249 243 243 248 252 253 254 255 254 255 254 236 220 212 198 194 191 188 188 187 186 189 192 193 193 195 196 197 197 197 197 198 199 199 198 198 198 196 195 193 193 195 197 200 203 203 202 205 210 211 212 213 214 214 214 214 215 213 212 212 215 218 220 221 222 226 230 234 240 250 258 267 272 276 285 287 293
268 228 207 224 236 248 257 267 286 262 263 273 134 226 277 245 211 237 240 240 249 245 238 242 246 251 252 249 250 253 249 227 220 216 198 191 188 183 188 190 190 192 195 194 195 196 197 197 197 197 198 199 200 200 199 199 199 198 199 199 198 198 199 204 207 206 205 207 209 210 211 212 213 214 213 213 214 213 212 213 215 217 220 220 221 225 229 232 238 246 253 260 264 258 261 271 285
265 232 195 211 226 243 247 232 227 233 266 292 127 136 282 280 233 207 213 221 242 249 246 246 242 245 251 249 252 253 235 209 209 209 197 192 190 188 191 194 194 195 194 193 194 195 196 198 198 198 199 200 200 201 200 201 201 201 202 203 204 205 207 209 208 207 208 208 207 209 210 211 212 213 213 213 213 213 212 213 215 216 217 218 221 225 228 232 235 242 249 253 257 255 256 267 278
251 184 171 178 197 220 185 191 226 281 335 282 196 134 278 279 247 188 208 214 229 244 242 243 239 238 248 249 252 256 232 208 206 199 196 194 193 196 195 194 195 196 194 193 195 196 197 198 198 199 200 201 201 202 202 203 204 204 203 204 207 210 211 212 209 206 207 207 206 208 209 209 211 212 214 214 213 213 213 214 215 215 217 219 222 226 227 230 234 238 244 248 251 252 256 264 271
232 115 97 70 70 56 79 145 167 43 307 251 193 155 208 277 270 178 177 202 215 233 235 238 234 232 245 248 252 259 242 217 215 202 197 197 197 198 195 192 194 195 195 195 196 196 197 198 198 199 201 202 202 203 203 205 206 206 205 206 208 210 209 209 208 205 205 205 205 205 206 207 208 210 211 212 213 213 213 214 215 217 220 220 222 225 226 228 232 236 241 244 245 248 254 259 266
122 94 57 29 12 22 47 16 72 50 277 230 182 180 186 269 286 154 159 198 199 209 224 241 242 236 245 247 249 255 245 225 216 205 201 198 195 193 189 190 193 195 196 196 196 196 197 198 199 201 203 203 203 204 205 206 206 207 209 209 209 209 206 204 203 202 202 202 202 203 204 205 207 208 209 209 211 212 212 213 216 218 220 221 223 224 225 228 230 234 236 240 242 245 252 259 264
93 96 74 22 330 8 25 355 56 219 265 214 182 186 187 234 274 136 220 232 190 201 208 223 236 237 242 246 248 250 239 216 195 193 194 180 176 183 187 191 191 191 194 195 197 197 197 199 200 201 203 204 205 205 205 207 207 209 211 211 211 210 207 204 204 203 202 201 202 201 201 202 205 206 207 208 209 210 210 211 214 217 218 220 222 223 225 226 228 231 233 237 242 245 251 258 264
106 108 105 61 297 343 355 310 215 222 255 228 194 185 203 240 252 235 271 276 207 207 207 212 223 231 237 241 247 249 230 197 184 185 187 179 183 186 187 191 189 191 195 196 197 197 198 201 201 202 205 206 206 206 206 207 208 211 213 212 212 211 209 208 207 206 205 204 203 200 199 200 201 203 205 207 208 208 209 211 212 215 218 219 221 222 222 224 225 230 233 238 242 245 252 260 263
165 150 148 176 213 252 263 257 261 262 264 251 203 176 238 277 271 221 233 241 224 205 208 217 217 225 230 228 243 251 213 189 190 186 186 189 193 192 190 191 190 194 197 196 197 198 199 202 202 206 208 207 206 207 207 208 210 213 214 214 213 211 211 211 210 209 208 206 204 203 202 202 202 203 206 208 210 208 208 211 213 215 217 218 219 219 220 223 226 230 235 240 244 248 253 258 261
179 153 143 175 179 183 224 242 255 276 286 274 191 162 224 277 265 218 217 237 236 209 212 219 218 230 231 228 248 252 197 195 196 188 193 197 196 194 193 193 194 196 196 195 198 199 200 203 205 207 209 208 207 208 208 209 212 213 214 215 215 213 212 212 212 211 210 208 207 205 205 204 204 206 208 210 210 208 208 210 212 214 215 214 215 217 219 222 225 230 235 240 244 247 251 254 258
213 125 117 207 200 194 232 267 248 246 309 286 210 201 235 235 255 247 235 260 256 220 223 221 226 239 235 238 247 232 192 198 194 193 201 203 198 194 193 195 197 195 194 197 200 199 202 205 207 209 211 209 207 208 210 212 213 212 213 216 216 215 213 212 213 213 211 210 209 207 206 206 207 208 209 210 209 208 209 209 210 211 212 213 214 216 220 222 225 230 235 239 243 246 249 253 257
187 120 182 212 165 166 221 286 302 83 275 275 224 233 279 305 279 251 232 250 245 229 230 221 229 235 229 236 237 213 203 202 195 200 203 201 198 196 198 197 195 194 195 199 202 203 205 206 207 210 211 210 209 210 212 213 213 212 213 215 216 215 214 213 213 212 211 210 209 209 208 207 208 209 210 210 209 208 209 209 209 210 210 212 213 216 221 223 226 230 233 238 241 244 248 253 256
130 172 220 203 76 109 156 235 324 315 260 269 263 260 280 297 283 292 342 263 250 243 237 224 229 231 228 235 229 207 206 202 204 213 210 207 203 198 202 201 201 200 200 202 204 206 208 209 209 210 210 210 211 212 213 213 213 213 214 214 215 216 215 214 213 212 211 209 208 208 208 207 208 209 210 210 208 207 207 208 209 210 210 212 215 218 222 224 226 230 233 236 240 242 246 252 256
132 204 228 109 146 238 157 167 232 251 252 269 277 277 277 255 258 289 283 243 232 231 229 226 230 230 232 238 233 223 215 206 211 217 214 211 206 204 205 206 208 208 206 207 208 208 210 213 214 213 213 213 213 213 213 214 215 215 215 214 215 215 216 215 213 212 210 208 208 207 207 208 208 209 209 207 206 205 205 206 208 209 210 213 217 220 223 225 227 229 232 235 239 242 246 252 257
69 359 343 35 178 186 185 178 169 227 249 265 277 283 280 246 237 259 246 230 222 222 225 229 230 231 237 236 230 226 219 217 213 210 211 210 209 209 205 207 210 209 209 210 208 208 211 214 215 215 217 216 216 215 215 215 216 217 216 214 215 215 215 214 212 211 210 209 208 208 207 208 208 207 207 205 204 204 204 205 206 208 211 214 218 221 223 224 226 228 231 234 237 240 245 251 256
197 233 263 272 239 179 250 242 162 219 244 252 260 272 275 260 221 239 243 232 223 216 215 228 227 229 240 239 230 219 211 219 219 210 212 212 215 218 210 211 212 211 211 212 211 211 212 213 213 216 217 216 216 216 216 216 217 217 216 214 214 213 213 212 211 210 210 209 208 208 208 207 206 206 205 204 204 204 205 206 207 209 213 216 219 221 222 222 224 227 230 233 237 239 244 250 256
177 195 208 210 218 233 268 256 222 217 238 243 247 257 267 270 226 226 241 229 225 217 210 226 228 226 237 238 233 225 212 212 211 207 210 210 214 219 215 212 209 208 212 214 214 213 212 213 215 216 216 216 217 217 216 217 216 216 216 215 214 212 210 211 210 210 209 209 208 207 207 206 205 204 204 204 204 204 205 207 208 210 213 217 220 220 220 221 223 226 228 232 237 239 245 251 255